星链-37871(STARLINK-37871)

导读

Basic Information
目录编号:
69549
目录名称:
STARLINK-37871
国际标识:
2026-135D
轨道中心:
EARTH
卫星名称:
星链-37871
卫星全名:
星链-37871(STARLINK-37871)
卫星状态:
在轨 (已飞行81 天)
发射日期:
2026-06-15 UTC
国别 :
美国 (US)
星等 :
--
Orbit Information
数据来源 国际轨道数据
星历时间: 2026-09-02T20:47:52+0800
1天前
查看轨道信息
半长轴: 6843.66km
偏心率: 0.0000483
轨道倾角: 97.285°
近地点辐角 101.290°
升交点赤经 273.429°
平近点角 258.840°
近地点: 465.192km
远地点: 465.854km
周期: 93.906分钟
每日圈数: 15.334521
Detailed Information
固有亮度:
5
最大亮度:
2.5
卫星平台:
Starlink V1.0
覆盖范围:
全球
运营商:
太空探索技术公司
运营商所在国:
美国
制造商(研发单位):
太空探索技术公司
制造商所在国:
美国
使用方式:
暂无
Satellite Introduction
Starlink 计划是 SpaceX 推出的全球卫星互联网项目,通过发射低轨道卫星,为全球尤其是偏远地区提供高速、低延迟的互联网服务。自 2019 年起,Starlink 已部署数千颗卫星,旨在缩小全球数字鸿沟,推动互联网普及。该项目还为军事、航空等行业提供通信支持,带来广泛经济效益。
2D Orbit Map
3D Orbit Map
Orbit Altitude Analysis Chart
Orbit Inclination Analysis Chart
Orbit Comprehensive Analysis Chart
View Comprehensive Chart
Conjunction Data List
Event ID Objects TCA Miss Dist (km) Collision Risk Probability Collision Risk Index (CRI) Action
CDM_260903-153105-816706-954921
2026-09-03T
15:31:49+0000
2.865 km
极远距离
1.409534E-6 低风险 0.38
CDM_260903-111605-341506-954921
2026-09-03T
11:16:27+0000
2.858 km
极远距离
1.300315E-6 低风险 0.37